EFW3MG EGKK-LEZL

Flight info

Callsign EFW3MG
Flight time N/A
Altitude 33000
Route IMVUR N63 SAM M195 MARUK N621 LELNA DCT NOVAN/N0451F350 DCT DELOG N864 MONTO N857 HIJ
Aircraft A321/M-SDE3FGHIRWY/LB1

Departure

Time N/A
Airport London Gatwick Airport (EGKK)

Arrival

Time 2026-04-28 19:01
Airport Seville Airport (LEZL)
Time Latitude Longitude Altitude Speed Heading
2026-04-28 18:36 39.01382 -4.67402 31423 ft 398 kts 214°
2026-04-28 18:36 38.99068 -4.69364 31174 ft 398 kts 214°
2026-04-28 18:36 38.96794 -4.71296 30930 ft 397 kts 214°
2026-04-28 18:37 38.94498 -4.73246 30685 ft 395 kts 214°
2026-04-28 18:37 38.92206 -4.75188 30442 ft 394 kts 214°
2026-04-28 18:37 38.89924 -4.77118 30199 ft 392 kts 214°
2026-04-28 18:37 38.87649 -4.79036 29973 ft 391 kts 214°
2026-04-28 18:38 38.85381 -4.80946 29698 ft 389 kts 214°
2026-04-28 18:38 38.83124 -4.82850 29409 ft 388 kts 214°
2026-04-28 18:38 38.80876 -4.84749 29132 ft 386 kts 214°
2026-04-28 18:38 38.78669 -4.86615 28860 ft 385 kts 214°
2026-04-28 18:39 38.76439 -4.88498 28583 ft 383 kts 214°
2026-04-28 18:39 38.74215 -4.90369 28304 ft 382 kts 214°
2026-04-28 18:39 38.71998 -4.92230 28044 ft 380 kts 214°
2026-04-28 18:39 38.69793 -4.94085 27774 ft 379 kts 214°
2026-04-28 18:40 38.67596 -4.95929 27524 ft 377 kts 213°
2026-04-28 18:40 38.65406 -4.97762 27264 ft 375 kts 213°
2026-04-28 18:40 38.63229 -4.99582 27007 ft 373 kts 213°
2026-04-28 18:40 38.61074 -5.01382 26744 ft 366 kts 213°
2026-04-28 18:41 38.58982 -5.03132 26371 ft 362 kts 213°
2026-04-28 18:41 38.56896 -5.04882 25985 ft 357 kts 213°
2026-04-28 18:41 38.54830 -5.06615 25620 ft 353 kts 213°
2026-04-28 18:41 38.52786 -5.08325 25216 ft 349 kts 213°
2026-04-28 18:42 38.50700 -5.09864 24831 ft 345 kts 204°
2026-04-28 18:42 38.48439 -5.10910 24250 ft 347 kts 197°
2026-04-28 18:42 38.46130 -5.11792 23818 ft 345 kts 198°
2026-04-28 18:42 38.43845 -5.12679 23408 ft 342 kts 198°
2026-04-28 18:43 38.41615 -5.13553 22967 ft 338 kts 198°
2026-04-28 18:43 38.39381 -5.14434 22566 ft 333 kts 198°
2026-04-28 18:43 38.37153 -5.15311 21749 ft 341 kts 198°
2026-04-28 18:43 38.34848 -5.16218 20832 ft 352 kts 198°
2026-04-28 18:44 38.32502 -5.17137 20300 ft 351 kts 198°
2026-04-28 18:44 38.27890 -5.18939 19481 ft 343 kts 198°
2026-04-28 18:44 38.25622 -5.19825 19079 ft 339 kts 198°
2026-04-28 18:45 38.23378 -5.20699 18680 ft 336 kts 198°
2026-04-28 18:45 38.21183 -5.21554 18288 ft 333 kts 198°
2026-04-28 18:45 38.18983 -5.22412 17856 ft 330 kts 198°
2026-04-28 18:45 38.16804 -5.23263 17460 ft 325 kts 198°
2026-04-28 18:46 38.14661 -5.24098 17074 ft 320 kts 198°
2026-04-28 18:46 38.12544 -5.24922 16695 ft 316 kts 198°
2026-04-28 18:46 38.10449 -5.25731 16318 ft 313 kts 198°
2026-04-28 18:46 38.08381 -5.26532 15947 ft 309 kts 198°
2026-04-28 18:47 38.06336 -5.27328 15572 ft 305 kts 198°
2026-04-28 18:47 38.04342 -5.28103 15215 ft 302 kts 198°
2026-04-28 18:47 38.02343 -5.28880 14857 ft 299 kts 198°
2026-04-28 18:47 38.00356 -5.29651 14502 ft 297 kts 198°
2026-04-28 18:48 37.98388 -5.30413 14159 ft 295 kts 198°
2026-04-28 18:48 37.96432 -5.31171 13794 ft 293 kts 197°
2026-04-28 18:48 37.94489 -5.31921 13418 ft 291 kts 197°
2026-04-28 18:48 37.92566 -5.32660 13065 ft 287 kts 197°
2026-04-28 18:49 37.90660 -5.33393 12731 ft 285 kts 198°
2026-04-28 18:49 37.90047 -5.33630 12618 ft 284 kts 198°
2026-04-28 18:49 37.86920 -5.34842 12052 ft 281 kts 197°
2026-04-28 18:49 37.85051 -5.35563 11716 ft 280 kts 197°
2026-04-28 18:50 37.83194 -5.36278 11376 ft 278 kts 197°
2026-04-28 18:50 37.81349 -5.36988 11044 ft 276 kts 197°
2026-04-28 18:50 37.79521 -5.37694 10713 ft 274 kts 197°
2026-04-28 18:50 37.77717 -5.38429 10377 ft 271 kts 202°
2026-04-28 18:51 37.76060 -5.39548 10000 ft 271 kts 214°
2026-04-28 18:51 37.74596 -5.41096 9482 ft 276 kts 221°
2026-04-28 18:51 37.73168 -5.42718 9104 ft 275 kts 221°
2026-04-28 18:51 37.71770 -5.44293 8764 ft 272 kts 221°
2026-04-28 18:52 37.70364 -5.45872 8422 ft 269 kts 221°
2026-04-28 18:52 37.68969 -5.47434 8092 ft 267 kts 221°
2026-04-28 18:52 37.67553 -5.48900 7884 ft 258 kts 208°
2026-04-28 18:52 37.65831 -5.49469 7836 ft 267 kts 184°
2026-04-28 18:53 37.63964 -5.49862 7656 ft 276 kts 197°
2026-04-28 18:53 37.62145 -5.50644 7314 ft 276 kts 200°
2026-04-28 18:53 37.60348 -5.51471 6978 ft 274 kts 200°
2026-04-28 18:53 37.58562 -5.52296 6637 ft 273 kts 200°
2026-04-28 18:54 37.56806 -5.53114 6244 ft 270 kts 200°
2026-04-28 18:54 37.55064 -5.53935 5820 ft 264 kts 200°
2026-04-28 18:54 37.53368 -5.54770 5387 ft 259 kts 206°
2026-04-28 18:54 37.51814 -5.55830 5074 ft 247 kts 210°
2026-04-28 18:55 37.50375 -5.56886 4813 ft 236 kts 210°
2026-04-28 18:55 37.49456 -5.57567 4610 ft 226 kts 210°
2026-04-28 18:55 37.47707 -5.58859 4264 ft 215 kts 210°
2026-04-28 18:55 37.46502 -5.59937 3984 ft 212 kts 219°
2026-04-28 18:56 37.45388 -5.61104 3713 ft 204 kts 220°
2026-04-28 18:56 37.44338 -5.62218 3431 ft 196 kts 220°
2026-04-28 18:56 37.43310 -5.63311 3173 ft 191 kts 221°
2026-04-28 18:56 37.42434 -5.64539 3016 ft 189 kts 237°
2026-04-28 18:57 37.41927 -5.66051 3001 ft 189 kts 257°
2026-04-28 18:57 37.41839 -5.67696 2996 ft 189 kts 269°
2026-04-28 18:57 37.41838 -5.69356 2850 ft 190 kts 269°
2026-04-28 18:57 37.41836 -5.71006 2656 ft 187 kts 269°
2026-04-28 18:58 37.41833 -5.72652 2405 ft 188 kts 267°
2026-04-28 18:58 37.41832 -5.74237 2159 ft 175 kts 266°
2026-04-28 18:58 37.41830 -5.75704 1934 ft 162 kts 265°
2026-04-28 18:58 37.41827 -5.77064 1731 ft 152 kts 264°
2026-04-28 18:59 37.41824 -5.78380 1533 ft 150 kts 266°
2026-04-28 18:59 37.41820 -5.79701 1340 ft 152 kts 265°
2026-04-28 18:59 37.41817 -5.81024 1143 ft 150 kts 264°
2026-04-28 18:59 37.41813 -5.82322 954 ft 147 kts 265°
2026-04-28 19:00 37.41808 -5.83592 753 ft 144 kts 266°
2026-04-28 19:00 37.41805 -5.84814 581 ft 143 kts 266°
2026-04-28 19:00 37.41801 -5.86060 371 ft 140 kts 268°
2026-04-28 19:00 37.41803 -5.87285 187 ft 140 kts 269°
2026-04-28 19:01 37.41797 -5.88454 107 ft 118 kts 270°
2026-04-28 19:01 37.41789 -5.89270 100 ft 68 kts 270°
2026-04-28 19:01 37.41794 -5.89616 98 ft 30 kts 271°
2026-04-28 19:01 37.41826 -5.89783 98 ft 15 kts 317°
2026-04-28 19:02 37.41899 -5.89829 98 ft 9 kts 339°
2026-04-28 19:02 37.41962 -5.89856 96 ft 10 kts 351°
2026-04-28 19:02 37.42025 -5.89815 97 ft 12 kts 46°
2026-04-28 19:02 37.42085 -5.89741 99 ft 13 kts 43°
2026-04-28 19:03 37.42150 -5.89662 96 ft 10 kts 44°
2026-04-28 19:03 37.42197 -5.89618 95 ft 2 kts 349°
2026-04-28 19:03 37.42210 -5.89644 98 ft 5 kts 306°
2026-04-28 19:03 37.42238 -5.89687 96 ft 8 kts 311°
2026-04-28 19:04 37.42283 -5.89730 94 ft 9 kts 347°
2026-04-28 19:04 37.42322 -5.89719 95 ft 9 kts 14°
2026-04-28 19:04 37.42368 -5.89731 95 ft 3 kts 344°
2026-04-28 19:04 37.42377 -5.89735 94 ft 0 kts 343°